Location: DARK SKY Beskydy - Park tmavé oblohy, www.darkskybeskydy.cz
(49.4926°N, 18.5016°E)
Time: 03:16:04
(UTC+02:00)

A-11 Canister half - Pass Details

Date: 01 March 2024
Orbit: 1513 x 1686 km, 47.2° (Epoch: 24 April)

Event Time Altitude Azimuth Distance (km) Brightness Sun altitude
Rises 03:39:24 0° 271° (W) 4,939 - -27.7°
Reaches altitude 10° 03:42:35 10° 270° (W) 3,944 - -27.3°
Exits shadow 03:48:45 43° 264° (W) 2,205 9.3 -26.3°
Maximum altitude 03:52:43 78° 187° (S) 1,686 9.0 -25.7°
Drops below altitude 10° 04:02:32 10° 103° (ESE) 3,833 11.9 -24.2°
Sets 04:05:35 0° 102° (ESE) 4,795 12.6 -23.7°
